When you browse on this site, cookies collect data to enhance your experience and personalize the content and advertising you see.
Visit our Privacy Policy to learn more. By continuing to use the site, you agree to this use of cookies and data.
  • In Latvia
  • List of Countries
  • For 7 days
  • Water Temperature
  • Weather Map
  • Weather Widgets
  • user-avatar
    Login

    Hourly Weather Hrodna

    Today, 4 June, Thursday

    Time Temperature Precipitation Wind Pressure Humidity
    00:00 +8°C° 0 mm 1 mps 742 mmHg 94%
    01:00 +8°C° 0 mm 1 mps 742 mmHg 94%
    02:00 +8°C° 0 mm 1 mps 742 mmHg 96%
    03:00 +8°C° 0.2 mm 1 mps 742 mmHg 96%
    04:00 +8°C° 0.2 mm 1 mps 741 mmHg 96%
    05:00 +9°C° 0.2 mm 1 mps 741 mmHg 96%
    06:00 +10°C° 0.3 mm 1 mps 741 mmHg 93%
    07:00 +11°C° 0.3 mm 1 mps 741 mmHg 90%
    08:00 +12°C° 0.3 mm 1 mps 741 mmHg 87%
    09:00 +13°C° 0.7 mm 1 mps 741 mmHg 82%
    10:00 +14°C° 0.7 mm 1 mps 740 mmHg 77%
    11:00 +15°C° 0.7 mm 1 mps 740 mmHg 73%
    12:00 +16°C° 0.4 mm 1 mps 740 mmHg 68%
    13:00 +18°C° 0.4 mm 1 mps 740 mmHg 63%
    14:00 +19°C° 0.4 mm 1 mps 740 mmHg 58%
    15:00 +19°C° 0.1 mm 1 mps 739 mmHg 57%
    16:00 +19°C° 0.1 mm 1 mps 739 mmHg 56%
    17:00 +19°C° 0.1 mm 1 mps 739 mmHg 54%
    18:00 +18°C° 0 mm 1 mps 739 mmHg 62%
    19:00 +15°C° 0 mm 1 mps 739 mmHg 69%
    20:00 +14°C° 0 mm 1 mps 739 mmHg 76%
    21:00 +13°C° 0 mm 1 mps 739 mmHg 79%
    22:00 +12°C° 0 mm 1 mps 739 mmHg 83%
    23:00 +10°C° 0 mm 1 mps 739 mmHg 87%

    Tomorrow, 5 June, Friday

    Time Temperature Precipitation Wind Pressure Humidity
    00:00 +10°C° 0 mm 1 mps 739 mmHg 87%
    01:00 +10°C° 0 mm 1 mps 739 mmHg 87%
    02:00 +9°C° 0 mm 1 mps 739 mmHg 87%
    03:00 +9°C° 0 mm 1 mps 739 mmHg 88%
    04:00 +9°C° 0 mm 1 mps 739 mmHg 89%
    05:00 +9°C° 0 mm 1 mps 738 mmHg 89%
    06:00 +10°C° 0 mm 2 mps 738 mmHg 84%
    07:00 +12°C° 0 mm 3 mps 738 mmHg 78%
    08:00 +14°C° 0 mm 3 mps 739 mmHg 72%
    09:00 +17°C° 0 mm 4 mps 738 mmHg 69%
    10:00 +18°C° 0 mm 4 mps 738 mmHg 65%
    11:00 +20°C° 0 mm 5 mps 738 mmHg 61%
    12:00 +20°C° 0 mm 5 mps 738 mmHg 63%
    13:00 +21°C° 0 mm 5 mps 737 mmHg 65%
    14:00 +22°C° 0 mm 6 mps 737 mmHg 67%
    15:00 +22°C° 0.6 mm 6 mps 737 mmHg 71%
    16:00 +21°C° 0.6 mm 6 mps 737 mmHg 76%
    17:00 +21°C° 0.6 mm 6 mps 736 mmHg 80%
    18:00 +20°C° 0.4 mm 5 mps 737 mmHg 83%
    19:00 +19°C° 0.4 mm 5 mps 737 mmHg 87%
    20:00 +18°C° 0.4 mm 4 mps 737 mmHg 90%
    21:00 +17°C° 0 mm 4 mps 738 mmHg 92%
    22:00 +15°C° 0 mm 4 mps 738 mmHg 94%
    23:00 +14°C° 0 mm 3 mps 739 mmHg 97%

    Day after tomorrow, 6 June, Saturday

    Time Temperature Precipitation Wind Pressure Humidity
    00:00 +13°C° 0 mm 3 mps 739 mmHg 96%
    01:00 +13°C° 0 mm 2 mps 740 mmHg 96%
    02:00 +13°C° 0 mm 2 mps 740 mmHg 96%
    03:00 +13°C° 0 mm 2 mps 740 mmHg 96%
    04:00 +13°C° 0 mm 2 mps 740 mmHg 96%
    05:00 +13°C° 0 mm 2 mps 740 mmHg 96%
    06:00 +14°C° 0 mm 3 mps 741 mmHg 92%
    07:00 +15°C° 0 mm 4 mps 741 mmHg 88%
    08:00 +16°C° 0 mm 5 mps 741 mmHg 85%
    09:00 +17°C° 0 mm 6 mps 742 mmHg 77%
    10:00 +19°C° 0 mm 6 mps 742 mmHg 70%
    11:00 +20°C° 0 mm 7 mps 743 mmHg 62%
    12:00 +21°C° 0.1 mm 7 mps 743 mmHg 61%
    13:00 +21°C° 0.1 mm 7 mps 744 mmHg 59%
    14:00 +21°C° 0.1 mm 7 mps 744 mmHg 58%
    15:00 +21°C° 0 mm 6 mps 745 mmHg 58%
    16:00 +21°C° 0 mm 6 mps 745 mmHg 59%
    17:00 +21°C° 0 mm 5 mps 745 mmHg 60%
    18:00 +20°C° 0 mm 4 mps 745 mmHg 66%
    19:00 +19°C° 0 mm 3 mps 745 mmHg 72%
    20:00 +18°C° 0 mm 2 mps 746 mmHg 77%
    21:00 +17°C° 0 mm 3 mps 746 mmHg 80%
    22:00 +16°C° 0 mm 3 mps 746 mmHg 82%
    23:00 +16°C° 0 mm 3 mps 747 mmHg 85%

    7 June, Sunday

    Time Temperature Precipitation Wind Pressure Humidity
    00:00 +14°C° 0 mm 3 mps 747 mmHg 87%
    01:00 +14°C° 0 mm 3 mps 747 mmHg 89%
    02:00 +13°C° 0 mm 3 mps 747 mmHg 92%
    03:00 +13°C° 0 mm 3 mps 747 mmHg 92%
    04:00 +14°C° 0 mm 2 mps 747 mmHg 91%
    05:00 +14°C° 0 mm 2 mps 747 mmHg 91%
    06:00 +16°C° 0 mm 3 mps 747 mmHg 87%
    07:00 +17°C° 0 mm 3 mps 747 mmHg 84%
    08:00 +19°C° 0 mm 4 mps 747 mmHg 80%
    09:00 +19°C° 0.3 mm 4 mps 747 mmHg 82%
    10:00 +19°C° 0.3 mm 4 mps 747 mmHg 84%
    11:00 +19°C° 0.3 mm 4 mps 747 mmHg 86%
    12:00 +21°C° 0.4 mm 4 mps 746 mmHg 81%
    13:00 +23°C° 0.4 mm 5 mps 746 mmHg 77%
    14:00 +25°C° 0.4 mm 5 mps 745 mmHg 72%
    15:00 +25°C° 2.1 mm 4 mps 745 mmHg 76%
    16:00 +25°C° 2.1 mm 4 mps 745 mmHg 79%
    17:00 +24°C° 2.1 mm 3 mps 745 mmHg 83%
    18:00 +22°C° 1.7 mm 3 mps 745 mmHg 86%
    19:00 +21°C° 1.7 mm 2 mps 745 mmHg 90%
    20:00 +19°C° 1.7 mm 2 mps 746 mmHg 93%
    21:00 +19°C° 0.5 mm 2 mps 746 mmHg 94%
    22:00 +18°C° 0.5 mm 2 mps 747 mmHg 95%
    23:00 +17°C° 0.5 mm 2 mps 747 mmHg 96%

    8 June, Monday

    Time Temperature Precipitation Wind Pressure Humidity
    00:00 +17°C° 0.6 mm 2 mps 747 mmHg 97%
    01:00 +16°C° 0.6 mm 2 mps 748 mmHg 97%
    02:00 +16°C° 0.6 mm 2 mps 748 mmHg 98%
    03:00 +16°C° 0.3 mm 2 mps 748 mmHg 98%
    04:00 +16°C° 0.3 mm 3 mps 748 mmHg 98%
    05:00 +16°C° 0.3 mm 3 mps 748 mmHg 98%
    06:00 +16°C° 0.5 mm 3 mps 748 mmHg 97%
    07:00 +17°C° 0.5 mm 3 mps 748 mmHg 96%
    08:00 +17°C° 0.5 mm 3 mps 748 mmHg 95%
    09:00 +18°C° 0.1 mm 3 mps 748 mmHg 92%
    10:00 +20°C° 0.1 mm 4 mps 748 mmHg 89%
    11:00 +21°C° 0.1 mm 4 mps 748 mmHg 86%
    12:00 +21°C° 0.9 mm 4 mps 748 mmHg 86%
    13:00 +20°C° 0.9 mm 4 mps 748 mmHg 87%
    14:00 +20°C° 0.9 mm 4 mps 748 mmHg 87%
    15:00 +20°C° 0.4 mm 4 mps 748 mmHg 88%
    16:00 +20°C° 0.4 mm 4 mps 747 mmHg 88%
    17:00 +20°C° 0.4 mm 4 mps 747 mmHg 89%
    18:00 +19°C° 0.1 mm 4 mps 747 mmHg 89%
    19:00 +19°C° 0.1 mm 4 mps 747 mmHg 90%
    20:00 +19°C° 0.1 mm 4 mps 747 mmHg 90%
    21:00 +18°C° 0 mm 3 mps 747 mmHg 92%
    22:00 +18°C° 0 mm 2 mps 747 mmHg 94%
    23:00 +17°C° 0 mm 2 mps 747 mmHg 95%

    9 June, Tuesday

    Time Temperature Precipitation Wind Pressure Humidity
    00:00 +17°C° 0.1 mm 2 mps 747 mmHg 96%
    01:00 +16°C° 0.1 mm 2 mps 747 mmHg 96%
    02:00 +16°C° 0.1 mm 2 mps 747 mmHg 97%
    03:00 +16°C° 0 mm 2 mps 747 mmHg 97%
    04:00 +16°C° 0 mm 2 mps 747 mmHg 97%
    05:00 +16°C° 0 mm 2 mps 747 mmHg 98%
    06:00 +17°C° 0 mm 2 mps 747 mmHg 95%
    07:00 +18°C° 0 mm 2 mps 747 mmHg 92%
    08:00 +21°C° 0 mm 1 mps 748 mmHg 89%
    09:00 +22°C° 0 mm 1 mps 748 mmHg 87%
    10:00 +22°C° 0 mm 1 mps 748 mmHg 84%
    11:00 +23°C° 0 mm 1 mps 748 mmHg 81%
    12:00 +24°C° 0.1 mm 1 mps 748 mmHg 79%
    13:00 +25°C° 0.1 mm 1 mps 748 mmHg 76%
    14:00 +25°C° 0.1 mm 1 mps 748 mmHg 74%
    15:00 +25°C° 0.4 mm 2 mps 748 mmHg 75%
    16:00 +25°C° 0.4 mm 2 mps 748 mmHg 76%
    17:00 +25°C° 0.4 mm 2 mps 748 mmHg 77%
    18:00 +24°C° 0.4 mm 2 mps 748 mmHg 81%
    19:00 +23°C° 0.4 mm 2 mps 748 mmHg 86%
    20:00 +20°C° 0.4 mm 2 mps 748 mmHg 91%
    21:00 +20°C° 0.1 mm 2 mps 749 mmHg 92%
    22:00 +19°C° 0.1 mm 2 mps 749 mmHg 94%
    23:00 +18°C° 0.1 mm 2 mps 749 mmHg 95%
    Show more